Weather History for Kansas City International, MO

Change the Weather History Date:

Monday, January 14, 2013

  Actual Average Record
Temperature  
Mean Temperature 21 °F 28 °F  
Max Temperature 31 °F 38 °F 69 °F (1952)
Min Temperature 10 °F 19 °F -10 °F (1979)
Degree Days  
Heating Degree Days 44 36  
Month to date heating degree days 453 504  
Since 1 July heating degree days 2291 2546  
Cooling Degree Days 0 0  
Month to date cooling degree days 0 0  
Year to date cooling degree days 0 0  
Moisture  
Dew Point 7 °F    
Average Humidity 55    
Maximum Humidity 73    
Minimum Humidity 36    
Precipitation  
Precipitation 0.00 in 0.03 in 0.60 in (1962)
Month to date precipitation 0.25 0.43  
Year to date precipitation 0.25 0.43  
Snow  
Snow 0.00 in 0.10 in 5.80 in (1962)
Month to date snowfall T 1.9  
Since 1 July snowfall 3.7 8.1  
Snow Depth T in    
Sea Level Pressure  
Sea Level Pressure 30.45 in    
Wind  
Wind Speed 4 mph (NW)    
Max Wind Speed 9 mph    
Max Gust Speed 12 mph    
Visibility 10 miles    
Events      
T = Trace of Precipitation, MM = Missing Value Source: NWS Daily Summary

Daily Weather History Graph

Daily Weather History Graph

Search for Another Location

Airport:

Trip Planner

Search our weather history database for the weather conditions in past years. The results will help you decide how hot, cold, wet, or windy it might be!

Date:

Astronomy

Jan. 14, 2013 Rise Set
Actual Time 7:37 AM CST 5:19 PM CST
Civil Twilight 7:07 AM CST 5:48 PM CST
Nautical Twilight 6:34 AM CST 6:21 PM CST
Astronomical Twilight 6:02 AM CST 6:53 PM CST
Moon 9:12 AM CST (1/14) 9:04 PM CST (1/14)
Length of Visible Light 10h 40m
Length of Day
9h 42m
Waxing Crescent, 11% of the Moon is Illuminated
Jan 14
Waxing Crescent
Jan 18
First Quarter
Jan 26
Full
Feb 3
Last Quarter
Feb 10
New

Hourly Weather History & Observations

Time (CST) Temp. Windchill Dew Point Humidity Pressure Visibility Wind Dir Wind Speed Gust Speed Precip Events Conditions
12:53 AM 14.0 °F - 3.9 °F 64% 30.41 in 10.0 mi Calm Calm - N/A   Partly Cloudy
1:53 AM 14.0 °F 6.5 °F 3.9 °F 64% 30.45 in 10.0 mi WSW 4.6 mph - N/A   Clear
2:53 AM 12.9 °F - 3.9 °F 67% 30.46 in 10.0 mi Calm Calm - N/A   Clear
3:53 AM 12.2 °F 6.1 °F 3.2 °F 67% 30.42 in 10.0 mi SW 3.5 mph - N/A   Clear
4:53 AM 14.0 °F 6.5 °F 5.0 °F 67% 30.45 in 10.0 mi WSW 4.6 mph - N/A   Clear
5:53 AM 12.9 °F 5.2 °F 5.0 °F 71% 30.47 in 10.0 mi West 4.6 mph - N/A   Clear
6:53 AM 12.0 °F 1.5 °F 5.0 °F 73% 30.47 in 10.0 mi NW 6.9 mph - N/A   Partly Cloudy
7:53 AM 10.0 °F - 3.9 °F 76% 30.50 in 10.0 mi Calm Calm - N/A   Scattered Clouds
8:53 AM 15.1 °F 7.7 °F 7.0 °F 70% 30.53 in 10.0 mi WNW 4.6 mph - N/A   Mostly Cloudy
9:53 AM 17.1 °F 11.7 °F 9.0 °F 71% 30.55 in 10.0 mi WNW 3.5 mph - N/A   Mostly Cloudy
10:53 AM 19.9 °F 13.4 °F 9.0 °F 62% 30.53 in 10.0 mi WNW 4.6 mph - N/A   Mostly Cloudy
11:53 AM 24.1 °F 16.0 °F 9.0 °F 53% 30.48 in 10.0 mi North 6.9 mph - N/A   Mostly Cloudy
12:53 PM 28.0 °F 21.7 °F 7.0 °F 41% 30.44 in 10.0 mi NNE 5.8 mph - N/A   Mostly Cloudy
1:53 PM 30.0 °F 23.2 °F 7.0 °F 38% 30.43 in 10.0 mi NNE 6.9 mph - N/A   Partly Cloudy
2:53 PM 30.0 °F - 7.0 °F 38% 30.43 in 10.0 mi Calm Calm - N/A   Partly Cloudy
3:53 PM 30.2 °F 24.3 °F 6.8 °F 37% 30.39 in 10.0 mi ENE 5.8 mph - N/A   Partly Cloudy
4:53 PM 28.0 °F 20.8 °F 7.0 °F 41% 30.42 in 10.0 mi East 6.9 mph - N/A   Clear
5:53 PM 26.1 °F 20.5 °F 7.0 °F 44% 30.42 in 10.0 mi ESE 4.6 mph - N/A   Partly Cloudy
6:53 PM 24.1 °F 16.0 °F 8.1 °F 51% 30.44 in 10.0 mi East 6.9 mph - N/A   Partly Cloudy
7:53 PM 19.9 °F 11.1 °F 10.0 °F 65% 30.45 in 10.0 mi SE 6.9 mph - N/A   Partly Cloudy
8:53 PM 19.9 °F 11.1 °F 10.0 °F 65% 30.44 in 10.0 mi SE 6.9 mph - N/A   Partly Cloudy
9:53 PM 19.0 °F 12.3 °F 9.0 °F 65% 30.44 in 10.0 mi SSE 4.6 mph - N/A   Scattered Clouds
10:53 PM 21.0 °F - 9.0 °F 60% 30.43 in 10.0 mi Calm Calm - N/A   Clear
11:53 PM 19.9 °F 14.9 °F 8.1 °F 60% 30.43 in 10.0 mi South 3.5 mph - N/A   Scattered Clouds